Back to catalog

STARLINK-5128

AliveCommunicationsVLEO
NORAD 53998·PAYLOAD·🇺🇸 United States

Launched Oct 5, 2022 from Vandenberg Space Force Base

Loading…

Next Passes (next 24 hours)

TLE

FreshSource: CelesTrak SupGP

Epoch: Sep 15, 2026, 02:52 UTC

1 53998C 22125AL  26258.11993056  .00681940  00000+0  34637-1 0  2582
2 53998  53.1591  82.6721 0001293  88.5629   4.8357 15.16041052    12

Track STARLINK-5128 in real time with AllMySat

Download on the App Store